Change the Weather History Date:

Monday, November 7, 2011

  Actual Average Record
Temperature  
Mean Temperature 34 °F -  
Max Temperature 41 °F 46 °F 60 °F (2003)
Min Temperature 26 °F 36 °F 26 °F (2011)
Degree Days  
Heating Degree Days 32    
Moisture  
Dew Point 36 °F    
Average Humidity 98    
Maximum Humidity 100    
Minimum Humidity 93    
Precipitation  
Precipitation 0.00 in - - ()
Sea Level Pressure  
Sea Level Pressure 30.30 in    
Wind  
Wind Speed 2 mph ()    
Max Wind Speed 9 mph    
Max Gust Speed -    
Visibility 0.8 miles    
Events Fog    
Averages and records for this station are not official NWS values.
T = Trace of Precipitation, MM = Missing Value Source: Averaged Metar Reports

Daily Weather History Graph

Daily Weather History Graph

Search for Another Location

Airport or City:

Trip Planner

Search our weather history database for the weather conditions in past years. The results will help you decide how hot, cold, wet, or windy it might be!

Date:

Astronomy

Nov. 07, 2011 Rise Set
Actual Time 7:36 AM GMT 4:25 PM GMT
Civil Twilight 6:55 AM GMT 5:06 PM GMT
Nautical Twilight 6:11 AM GMT 5:50 PM GMT
Astronomical Twilight 5:27 AM GMT 6:33 PM GMT
Moon 2:52 PM GMT (11/7) 3:59 AM GMT (11/7)
Length of Visible Light 10h 10m
Length of Day
8h 49m
Waxing Gibbous, 90% of the Moon is Illuminated
Nov 7
Waxing Gibbous
Nov 10
Full
Nov 18
Last Quarter
Nov 25
New
Dec 2
First Quarter

Hourly Weather History & Observations

Time (GMT) Temp. Windchill Dew Point Humidity Pressure Visibility Wind Dir Wind Speed Gust Speed Precip Events Conditions
12:20 AM 32.0 °F - 32.0 °F 100% 30.36 in 0.4 mi Calm Calm - N/A Fog Light Freezing Fog
12:50 AM 32.0 °F - 32.0 °F 100% 30.39 in 0.4 mi ENE 2.3 mph - N/A Fog Light Freezing Fog
1:20 AM 32.0 °F - 30.2 °F 93% 30.39 in 0.4 mi ENE 2.3 mph - N/A Fog Light Freezing Fog
1:50 AM 28.4 °F - 28.4 °F 100% 30.36 in 0.2 mi Variable 2.3 mph - N/A Fog Light Freezing Fog
2:20 AM 28.4 °F - 28.4 °F 100% 30.36 in 0.2 mi SSE 2.3 mph - N/A Fog Light Freezing Fog
2:50 AM 30.2 °F 26.7 °F 28.4 °F 93% 30.36 in 0.1 mi West 3.5 mph - N/A Fog Light Freezing Fog
3:20 AM 26.6 °F - 26.6 °F 100% 30.36 in 0.1 mi Calm Calm - N/A Fog Light Freezing Fog
3:50 AM 26.6 °F - 26.6 °F 100% 30.36 in 0.1 mi Calm Calm - N/A Fog Light Freezing Fog
4:20 AM 26.6 °F - 26.6 °F 100% 30.36 in 0.1 mi Calm Calm - N/A Fog Light Freezing Fog
5:20 AM 26.6 °F - 26.6 °F 100% 30.36 in 0.1 mi Calm Calm - N/A Fog Light Freezing Fog
5:50 AM 26.6 °F 22.6 °F 26.6 °F 100% 30.36 in 0.1 mi West 3.5 mph - N/A Fog Light Freezing Fog
6:20 AM 30.2 °F - 28.4 °F 93% 30.36 in 1.0 mi Calm Calm - N/A   Overcast
6:50 AM 32.0 °F - 30.2 °F 93% 30.36 in 1.6 mi Calm Calm - N/A   Mostly Cloudy
7:20 AM 32.0 °F - 32.0 °F 100% 30.36 in - Calm Calm - N/A   Mostly Cloudy
7:50 AM 32.0 °F - 32.0 °F 100% 30.36 in 1.9 mi Calm Calm - N/A   Mostly Cloudy
8:20 AM 33.8 °F - 33.8 °F 100% 30.36 in - Calm Calm - N/A   Mostly Cloudy
8:50 AM 33.8 °F - 33.8 °F 100% 30.36 in 1.5 mi Calm Calm - N/A   Overcast
9:20 AM 35.6 °F - 35.6 °F 100% 30.36 in 0.4 mi Variable 2.3 mph - N/A Fog Fog
9:50 AM 37.4 °F - 35.6 °F 93% 30.36 in 0.3 mi Calm Calm - N/A Fog Fog
10:20 AM 37.4 °F - 37.4 °F 100% 30.36 in 0.2 mi Calm Calm - N/A Fog Fog
10:50 AM 39.2 °F 37.0 °F 37.4 °F 93% 30.36 in 0.5 mi SE 3.5 mph - N/A Fog Fog
11:20 AM 39.2 °F 37.0 °F 39.2 °F 100% 30.33 in 0.9 mi Variable 3.5 mph - N/A   Overcast
11:50 AM 39.2 °F - 39.2 °F 100% 30.33 in 0.3 mi Variable 2.3 mph - N/A Fog Fog
12:20 PM 39.2 °F - 39.2 °F 100% 30.33 in 0.2 mi Variable 2.3 mph - N/A Fog Fog
12:50 PM 39.2 °F - 39.2 °F 100% 30.30 in 0.1 mi Variable 2.3 mph - N/A Fog Fog
1:20 PM 41.0 °F - 39.2 °F 93% 30.30 in 0.1 mi ESE 2.3 mph - N/A Fog Fog
1:50 PM 41.0 °F - 39.2 °F 93% 30.30 in 0.1 mi Variable 2.3 mph - N/A Fog Fog
2:20 PM 41.0 °F - 41.0 °F 100% 30.27 in 0.1 mi Variable 2.3 mph - N/A Fog Fog
2:50 PM 41.0 °F - 41.0 °F 100% 30.27 in 0.1 mi Variable 2.3 mph - N/A Fog Fog
3:20 PM 41.0 °F - 41.0 °F 100% 30.24 in 0.1 mi Variable 2.3 mph - N/A Fog Fog
3:50 PM 41.0 °F - 41.0 °F 100% 30.24 in 0.1 mi Variable 2.3 mph - N/A Fog Fog
4:20 PM 41.0 °F - 41.0 °F 100% 30.24 in 0.1 mi Calm Calm - N/A Fog Fog
4:50 PM 41.0 °F - 41.0 °F 100% 30.24 in 0.1 mi Variable 2.3 mph - N/A Fog Fog
5:20 PM 41.0 °F - 41.0 °F 100% 30.24 in 0.2 mi Variable 2.3 mph - N/A Fog Fog
5:50 PM 39.2 °F 35.9 °F 39.2 °F 100% 30.24 in 0.6 mi ENE 4.6 mph - N/A Fog Fog
6:20 PM 39.2 °F 34.2 °F 39.2 °F 100% 30.24 in 0.4 mi ENE 6.9 mph - N/A Fog Fog
6:50 PM 39.2 °F 35.0 °F 39.2 °F 100% 30.24 in 0.6 mi ENE 5.8 mph - N/A Fog Fog
7:20 PM 41.0 °F 38.0 °F 39.2 °F 93% 30.24 in 1.9 mi East 4.6 mph - N/A   Overcast
7:50 PM 41.0 °F 36.4 °F 41.0 °F 100% 30.21 in 2.2 mi East 6.9 mph - N/A   Overcast
8:20 PM 41.0 °F 35.8 °F 39.2 °F 93% 30.21 in 2.5 mi East 8.1 mph - N/A   Overcast
8:50 PM 39.2 °F 33.6 °F 39.2 °F 100% 30.21 in 3.1 mi East 8.1 mph - N/A   Mostly Cloudy
9:20 PM 39.2 °F 33.6 °F 39.2 °F 100% 30.21 in 3.1 mi ENE 8.1 mph - N/A   Mostly Cloudy
9:50 PM 39.2 °F 33.0 °F 39.2 °F 100% 30.21 in 3.1 mi ENE 9.2 mph - N/A   Mostly Cloudy
10:20 PM 39.2 °F 34.2 °F 39.2 °F 100% 30.21 in 3.1 mi ENE 6.9 mph - N/A   Overcast
10:50 PM 39.2 °F 35.0 °F 37.4 °F 93% 30.21 in 3.1 mi East 5.8 mph - N/A   Mostly Cloudy
11:20 PM 37.4 °F 33.8 °F 37.4 °F 100% 30.18 in - East 4.6 mph - N/A   Mostly Cloudy
11:50 PM 37.4 °F - 37.4 °F 100% 30.18 in - Calm Calm - N/A   Mostly Cloudy